Location: Newark
(40.7636°N, 73.9728°W)
Time: 06:07:03
(UTC+00:00)

ISS - Pass Details

Date: 30 September 2019
Orbit: 411 x 421 km, 51.6° (Epoch: 22 October)

Event Time Altitude Azimuth Distance (km) Brightness Sun altitude
Rises 00:44:57 0° 310° (NW) 2,346 1.2 -23.9°
Reaches altitude 10° 00:47:41 10° 334° (NNW) 1,482 -0.4 -24.4°
Enters shadow 00:48:51 14° 354° (N) 1,254 -1.1 -24.6°
